Mount Airy, NC

5:23 PM EDT on September 20, 2017 (GMT -0400)
Mount Airy-Surry County

Weather History for KMWK - March, 2014

Change the Weather History Date:

Wednesday, March 12, 2014

  Actual Average (KINT) Record (KINT)
Temperature  
Mean Temperature 53 °F -  
Max Temperature 67 °F 55 °F 81 °F (1990)
Min Temperature 39 °F 38 °F 14 °F (1969)
Degree Days  
Heating Degree Days 12    
Growing Degree Days 3 (Base 50)    
Moisture  
Dew Point 43 °F    
Average Humidity 68    
Maximum Humidity 92    
Minimum Humidity 47    
Precipitation  
Precipitation 0.10 in - - ()
Sea Level Pressure  
Sea Level Pressure 29.50 in    
Wind  
Wind Speed 3 mph (West)    
Max Wind Speed 24 mph    
Max Gust Speed 40 mph    
Visibility 8 miles    
Events Rain    
Averages and records for this station are not official NWS values.
T = Trace of Precipitation, MM = Missing Value Source: NWS Daily Summary

Daily Weather History Graph

Daily Weather History Graph

Search for Another Location

Airport or City:

Trip Planner

Search our weather history database for the weather conditions in past years. The results will help you decide how hot, cold, wet, or windy it might be!

Date:

Astronomy

Mar. 12, 2014 Rise Set
Actual Time 7:37 AM EDT 7:26 PM EDT
Civil Twilight 7:11 AM EDT 7:52 PM EDT
Nautical Twilight 6:41 AM EDT 8:22 PM EDT
Astronomical Twilight 6:11 AM EDT 8:52 PM EDT
Moon 4:00 PM EDT (3/12) 5:03 AM EDT (3/12)
Length of Visible Light 12h 40m
Length of Day
11h 49m
Waxing Gibbous, 85% of the Moon is Illuminated
Mar 12
Waxing Gibbous
Mar 16
Full
Mar 23
Last Quarter
Mar 30
New
Apr 7
First Quarter

Hourly Weather History & Observations

Time (EDT) Temp. Windchill Dew Point Humidity Pressure Visibility Wind Dir Wind Speed Gust Speed Precip Events Conditions
12:15 AM 52.2 °F - 37.9 °F 58% 29.68 in 10.0 mi Calm Calm - N/A   Clear
12:35 AM 51.4 °F - 37.8 °F 60% 29.66 in 10.0 mi NNE 3.5 mph - N/A   Clear
12:55 AM 50.9 °F - 38.3 °F 62% 29.66 in 10.0 mi Calm Calm - N/A   Clear
1:15 AM 51.1 °F - 37.8 °F 60% 29.65 in 10.0 mi Calm Calm - N/A   Clear
1:35 AM 52.5 °F - 37.2 °F 56% 29.64 in 10.0 mi Calm Calm - N/A   Clear
1:55 AM 49.8 °F - 38.7 °F 65% 29.63 in 10.0 mi Calm Calm - N/A   Clear
2:15 AM 50.0 °F - 39.0 °F 66% 29.62 in 10.0 mi Calm Calm - N/A   Clear
2:35 AM 52.2 °F - 39.0 °F 61% 29.62 in 10.0 mi Calm Calm - N/A   Clear
2:55 AM 50.9 °F - 39.4 °F 65% 29.61 in 10.0 mi Calm Calm - N/A   Clear
3:15 AM 50.2 °F - 40.5 °F 69% 29.60 in 10.0 mi Calm Calm - N/A   Clear
3:35 AM 50.9 °F - 39.9 °F 66% 29.59 in 10.0 mi Calm Calm - N/A   Scattered Clouds
3:55 AM 50.9 °F - 39.2 °F 64% 29.58 in 10.0 mi Calm Calm - N/A   Scattered Clouds
4:15 AM 53.2 °F - 37.2 °F 55% 29.57 in 10.0 mi Calm Calm - N/A   Scattered Clouds
4:35 AM 55.8 °F - 36.5 °F 48% 29.57 in 10.0 mi SSE 3.5 mph - N/A   Overcast
4:55 AM 56.3 °F - 36.7 °F 48% 29.56 in 10.0 mi SSE 3.5 mph - N/A   Overcast
5:15 AM 56.3 °F - 36.5 °F 47% 29.56 in 10.0 mi South 3.5 mph - N/A   Mostly Cloudy
5:35 AM 56.3 °F - 36.9 °F 48% 29.56 in 10.0 mi Calm Calm - N/A   Scattered Clouds
5:55 AM 56.8 °F - 37.6 °F 49% 29.56 in 10.0 mi Calm Calm - N/A   Mostly Cloudy
6:15 AM 57.2 °F - 39.0 °F 51% 29.56 in 10.0 mi Calm Calm - N/A   Overcast
6:35 AM 56.7 °F - 40.3 °F 54% 29.55 in 10.0 mi Calm Calm - N/A Rain Light Rain
6:55 AM 54.9 °F - 41.9 °F 62% 29.54 in 10.0 mi Calm Calm - N/A   Scattered Clouds
7:15 AM 54.7 °F - 44.4 °F 68% 29.54 in 10.0 mi Calm Calm - N/A Rain Light Rain
7:35 AM 54.7 °F - 44.4 °F 68% 29.52 in 10.0 mi Calm Calm - N/A   Mostly Cloudy
7:55 AM 57.0 °F - 47.3 °F 70% 29.52 in 10.0 mi Calm Calm - N/A   Overcast
8:15 AM 56.1 °F - 48.0 °F 74% 29.51 in 10.0 mi Calm Calm - N/A   Light Drizzle
8:35 AM 57.2 °F - 50.2 °F 77% 29.51 in 10.0 mi Calm Calm - N/A   Drizzle
8:55 AM 54.9 °F - 50.2 °F 84% 29.51 in 5.0 mi Calm Calm - N/A Rain Light Rain
9:15 AM 54.0 °F - 50.0 °F 86% 29.50 in 5.0 mi Calm Calm - 0.02 in Rain Rain
9:35 AM 54.0 °F - 50.9 °F 89% 29.50 in 4.0 mi Calm Calm - 0.04 in Rain Rain
9:55 AM 54.7 °F - 52.0 °F 91% 29.49 in 3.0 mi Calm Calm - 0.05 in Rain Light Rain
10:15 AM 56.5 °F - 53.8 °F 91% 29.48 in 2.0 mi Calm Calm - 0.01 in Rain Light Rain
10:35 AM 57.2 °F - 54.7 °F 91% 29.46 in 2.0 mi SSW 3.5 mph - 0.03 in Rain Light Rain
10:55 AM 57.6 °F - 55.2 °F 92% 29.45 in 2.5 mi SSW 3.5 mph - 0.03 in   Light Drizzle
11:15 AM 55.8 °F - 53.2 °F 91% 29.44 in 2.0 mi WNW 3.5 mph - N/A   Light Drizzle
11:35 AM 55.9 °F - 53.6 °F 92% 29.43 in 3.0 mi Calm Calm - 0.01 in   Overcast
11:55 AM 57.6 °F - 55.4 °F 92% 29.42 in 5.0 mi Calm Calm - 0.01 in   Overcast
12:15 PM 58.1 °F - 55.4 °F 91% 29.41 in 4.0 mi SW 4.6 mph - N/A   Overcast
12:35 PM 58.3 °F - 55.8 °F 91% 29.39 in 5.0 mi Calm Calm - N/A   Overcast
12:55 PM 58.1 °F - 55.4 °F 91% 29.38 in 5.0 mi WSW 3.5 mph - N/A   Overcast
1:15 PM 58.1 °F - 55.4 °F 91% 29.37 in 7.0 mi WSW 3.5 mph - N/A   Overcast
1:35 PM 58.1 °F - 55.4 °F 91% 29.36 in 5.0 mi Calm Calm - N/A   Overcast
1:55 PM 58.1 °F - 55.6 °F 91% 29.35 in 4.0 mi Calm Calm - N/A   Overcast
2:15 PM 61.3 °F - 58.5 °F 90% 29.31 in 10.0 mi SW 6.9 mph - N/A   Overcast
2:35 PM 62.2 °F - 58.3 °F 87% 29.29 in 10.0 mi SW 4.6 mph - N/A   Overcast
2:55 PM 63.3 °F - 59.0 °F 86% 29.28 in 10.0 mi SSW 8.1 mph - N/A   Overcast
3:15 PM 65.3 °F - 59.7 °F 82% 29.26 in 10.0 mi SSW 8.1 mph - N/A   Mostly Cloudy
3:35 PM 67.1 °F - 59.4 °F 76% 29.25 in 10.0 mi SSW 8.1 mph 18.4 mph N/A   Scattered Clouds
3:55 PM 65.5 °F - 59.0 °F 80% 29.24 in 10.0 mi South 9.2 mph - N/A   Mostly Cloudy
4:15 PM 65.3 °F - 59.5 °F 82% 29.26 in 10.0 mi West 5.8 mph - N/A   Drizzle
4:35 PM 65.5 °F - 58.5 °F 78% 29.26 in 10.0 mi West 11.5 mph 29.9 mph 0.01 in   Mostly Cloudy
4:55 PM 66.9 °F - 51.6 °F 58% 29.27 in 10.0 mi WNW 19.6 mph 36.8 mph 0.01 in   Scattered Clouds
5:15 PM 65.5 °F - 46.6 °F 50% 29.28 in 10.0 mi West 24.2 mph 40.3 mph N/A   Clear
5:35 PM 64.0 °F - 45.3 °F 51% 29.31 in 10.0 mi West 19.6 mph 36.8 mph N/A   Clear
7:35 PM 46.6 °F - 31.1 °F 55% 29.50 in - NW 15.0 mph - N/A   Unknown
7:55 PM 45.5 °F 39.6 °F 29.1 °F 53% 29.51 in 10.0 mi NW 12.7 mph 28.8 mph N/A   Overcast
8:15 PM 44.6 °F 38.1 °F 28.8 °F 54% 29.52 in 10.0 mi NNW 13.8 mph 29.9 mph N/A   Overcast
8:35 PM 43.7 °F 36.0 °F 28.6 °F 55% 29.55 in 10.0 mi NW 17.3 mph 28.8 mph N/A   Overcast
8:55 PM 42.8 °F 36.6 °F 27.1 °F 54% 29.56 in 10.0 mi NNW 11.5 mph 25.3 mph N/A   Overcast
9:15 PM 42.1 °F 36.6 °F 27.0 °F 55% 29.58 in 10.0 mi WNW 9.2 mph 23.0 mph N/A   Overcast
9:35 PM 41.9 °F 34.6 °F 26.4 °F 54% 29.59 in 10.0 mi NW 13.8 mph 21.9 mph N/A   Overcast
9:55 PM 41.4 °F 34.0 °F 26.2 °F 55% 29.60 in 10.0 mi WNW 13.8 mph 21.9 mph N/A   Mostly Cloudy
10:15 PM 40.6 °F 36.7 °F 25.3 °F 54% 29.61 in 10.0 mi WNW 5.8 mph 23.0 mph N/A   Mostly Cloudy
10:35 PM 40.3 °F 32.2 °F 23.9 °F 52% 29.62 in 10.0 mi WNW 15.0 mph 25.3 mph N/A   Scattered Clouds
10:55 PM 40.1 °F 32.0 °F 23.9 °F 52% 29.64 in 10.0 mi NW 15.0 mph 24.2 mph N/A   Mostly Cloudy
11:15 PM 39.6 °F 30.0 °F 23.4 °F 52% 29.65 in 10.0 mi WNW 19.6 mph 27.6 mph N/A   Mostly Cloudy
11:35 PM 39.6 °F 32.5 °F 22.1 °F 50% 29.66 in 10.0 mi WNW 11.5 mph 27.6 mph N/A   Mostly Cloudy
11:55 PM 39.4 °F 32.7 °F 22.8 °F 52% 29.66 in 10.0 mi WNW 10.4 mph 17.3 mph N/A   Overcast